Total_Precipitation_Accumulation
0.00 0.03 0.13 0.20 0.26 0.47 0.63 0.40 0.18 0.06 0.03 0.03 0.03 0.01 0.01 0.01 0.03 0.09 0.01 0.00 0.00 0.00 0.00 0.01 0.00 0.01 0.02 0.02 0.01 0.01 0.01 0.01 0.01 0.02 0.02 0.02 0.02 0.01 0.01 0.01 0.01 0.01 0.01 0.01 0.01 0.01 0.01 0.01 0.01
0.01 0.04 0.12 0.14 0.31 0.74 0.59 0.69 0.16 0.06 0.02 0.03 0.03 0.03 0.01 0.01 0.00 0.01 0.00 0.00 0.00 0.00 0.00 0.00 0.01 0.01 0.01 0.01 0.01 0.02 0.01 0.01 0.02 0.05 0.06 0.05 0.02 0.01 0.01 0.01 0.01 0.01 0.01 0.01 0.01 0.01 0.01 0.01 0.01
0.00 0.03 0.08 0.10 0.28 0.52 0.32 0.35 0.10 0.04 0.02 0.02 0.04 0.04 0.01 0.03 0.02 0.01 0.00 0.00 0.00 0.00 0.00 0.00 0.01 0.01 0.01 0.01 0.02 0.04 0.02 0.01 0.03 0.09 0.10 0.08 0.03 0.03 0.04 0.02 0.01 0.01 0.02 0.01 0.01 0.01 0.01 0.01 0.01
0.00 0.01 0.03 0.06 0.15 0.27 0.26 0.16 0.06 0.03 0.02 0.01 0.02 0.02 0.02 0.01 0.01 0.00 0.00 0.00 0.00 0.00 0.00 0.00 0.01 0.01 0.01 0.01 0.01 0.05 0.07 0.04 0.06 0.09 0.09 0.08 0.06 0.09 0.07 0.03 0.02 0.02 0.03 0.02 0.01 0.01 0.01 0.01 0.01
0.00 0.01 0.01 0.04 0.12 0.22 0.24 0.16 0.09 0.04 0.02 0.01 0.01 0.01 0.01 0.01 0.01 0.00 0.00 0.00 0.00 0.00 0.00 0.00 0.01 0.01 0.01 0.01 0.01 0.02 0.05 0.06 0.08 0.09 0.07 0.05 0.04 0.04 0.04 0.02 0.02 0.02 0.02 0.02 0.01 0.02 0.02 0.01 0.01
0.00 0.01 0.01 0.04 0.09 0.16 0.18 0.12 0.10 0.06 0.03 0.02 0.01 0.04 0.03 0.01 0.00 0.00 0.01 0.00 0.00 0.00 0.00 0.00 0.01 0.01 0.01 0.01 0.01 0.01 0.01 0.02 0.02 0.03 0.03 0.02 0.02 0.03 0.04 0.04 0.03 0.02 0.02 0.03 0.02 0.02 0.03 0.03 0.03
0.00 0.01 0.01 0.02 0.05 0.13 0.16 0.11 0.09 0.06 0.04 0.03 0.03 0.06 0.04 0.01 0.01 0.01 0.01 0.01 0.02 0.00 0.00 0.00 0.01 0.01 0.01 0.01 0.01 0.01 0.01 0.01 0.01 0.01 0.02 0.02 0.02 0.03 0.04 0.06 0.06 0.06 0.06 0.07 0.06 0.04 0.04 0.04 0.04
0.00 0.00 0.00 0.01 0.03 0.08 0.09 0.10 0.07 0.06 0.04 0.03 0.03 0.06 0.08 0.05 0.01 0.01 0.05 0.07 0.03 0.01 0.00 0.01 0.01 0.01 0.01 0.01 0.01 0.01 0.01 0.01 0.01 0.02 0.02 0.02 0.02 0.03 0.06 0.09 0.09 0.12 0.15 0.16 0.12 0.09 0.08 0.07 0.06
0.00 0.00 0.00 0.00 0.01 0.02 0.03 0.06 0.05 0.04 0.04 0.03 0.04 0.06 0.09 0.06 0.03 0.02 0.09 0.12 0.04 0.02 0.01 0.01 0.02 0.02 0.01 0.01 0.01 0.02 0.02 0.02 0.02 0.04 0.04 0.04 0.04 0.08 0.15 0.19 0.27 0.28 0.30 0.29 0.25 0.22 0.22 0.21 0.13
0.00 0.00 0.00 0.00 0.00 0.01 0.02 0.04 0.04 0.03 0.04 0.07 0.15 0.15 0.17 0.11 0.08 0.06 0.07 0.07 0.05 0.03 0.02 0.02 0.02 0.03 0.02 0.02 0.03 0.04 0.05 0.09 0.08 0.16 0.22 0.22 0.29 0.24 0.12 0.21 0.43 0.57 0.64 0.59 0.57 0.58 0.47 0.38 0.32
0.00 0.00 0.00 0.00 0.00 0.00 0.00 0.02 0.03 0.03 0.07 0.17 0.32 0.31 0.22 0.16 0.11 0.10 0.09 0.05 0.06 0.05 0.04 0.03 0.04 0.04 0.04 0.05 0.05 0.06 0.09 0.20 0.25 0.27 0.34 0.39 0.41 0.27 0.16 0.21 0.40 0.63 0.74 0.63 0.83 0.93 0.65 0.67 0.77
0.00 0.00 0.00 0.00 0.00 0.00 0.00 0.00 0.02 0.03 0.06 0.14 0.22 0.25 0.23 0.19 0.20 0.21 0.14 0.12 0.12 0.09 0.06 0.06 0.07 0.07 0.08 0.09 0.10 0.10 0.11 0.18 0.23 0.30 0.35 0.47 0.53 0.43 0.38 0.41 0.48 0.63 0.74 0.91 0.98 1.08 1.02 1.00 0.90
0.00 0.00 0.00 0.00 0.00 0.00 0.00 0.00 0.03 0.05 0.06 0.10 0.16 0.15 0.19 0.17 0.16 0.21 0.24 0.30 0.26 0.19 0.16 0.15 0.16 0.15 0.16 0.19 0.21 0.20 0.22 0.25 0.30 0.40 0.48 0.53 0.67 0.71 0.73 0.61 0.61 0.64 0.78 0.93 1.05 1.11 1.34 1.47 1.24
0.00 0.00 0.00 0.00 0.00 0.00 0.00 0.00 0.01 0.03 0.08 0.13 0.14 0.15 0.17 0.16 0.17 0.26 0.38 0.47 0.39 0.31 0.33 0.33 0.35 0.40 0.41 0.45 0.46 0.48 0.45 0.46 0.47 0.47 0.53 0.62 0.76 0.88 0.89 0.81 0.83 0.80 0.85 1.01 1.22 1.38 1.68 1.66 1.53
0.00 0.00 0.00 0.00 0.00 0.00 0.00 0.00 0.01 0.04 0.10 0.14 0.18 0.24 0.25 0.24 0.27 0.38 0.49 0.51 0.49 0.50 0.55 0.61 0.72 0.81 0.82 0.81 0.83 0.84 0.77 0.73 0.75 0.79 0.83 0.85 0.91 1.02 1.03 0.92 0.91 1.02 1.19 1.34 1.39 1.55 1.79 1.50 1.45
0.00 0.00 0.00 0.00 0.00 0.00 0.00 0.01 0.03 0.07 0.08 0.12 0.14 0.17 0.27 0.28 0.30 0.37 0.47 0.55 0.64 0.73 0.84 1.01 1.17 1.20 1.19 1.23 1.27 1.30 1.24 1.17 1.13 1.11 1.14 1.08 1.08 1.15 1.29 1.15 1.09 1.45 1.55 1.59 1.71 1.83 1.81 1.65 1.58
0.00 0.00 0.00 0.00 0.01 0.00 0.01 0.03 0.06 0.14 0.13 0.14 0.13 0.14 0.23 0.33 0.40 0.47 0.56 0.72 0.93 1.15 1.35 1.61 1.75 1.73 1.64 1.68 1.72 1.72 1.61 1.48 1.37 1.28 1.25 1.20 1.25 1.34 1.53 1.45 1.52 1.81 1.87 1.83 1.78 2.00 1.98 1.79 1.70
0.00 0.00 0.01 0.02 0.02 0.01 0.03 0.07 0.09 0.13 0.14 0.16 0.18 0.24 0.33 0.43 0.67 0.81 0.86 0.95 1.17 1.54 1.87 1.97 2.10 2.35 2.32 2.30 2.18 1.94 1.62 1.43 1.41 1.40 1.31 1.31 1.40 1.54 1.79 1.64 1.65 1.86 1.95 1.88 1.83 1.78 1.84 1.65 1.60
0.01 0.01 0.03 0.04 0.02 0.03 0.08 0.16 0.23 0.29 0.25 0.25 0.21 0.25 0.31 0.41 0.58 0.75 0.96 1.19 1.42 1.67 1.96 2.24 2.49 2.67 2.56 2.35 2.13 1.96 1.82 1.75 1.58 1.49 1.44 1.39 1.39 1.50 1.76 1.67 1.77 1.83 1.77 1.74 1.80 1.79 1.63 1.34 1.52
0.02 0.03 0.04 0.07 0.04 0.05 0.12 0.22 0.34 0.33 0.32 0.33 0.25 0.24 0.35 0.56 0.66 0.91 1.10 1.17 1.35 1.63 2.02 2.28 2.59 2.70 2.51 2.24 2.08 2.00 1.97 1.72 1.50 1.51 1.50 1.50 1.56 1.57 1.65 1.69 1.70 1.74 1.72 1.61 1.57 1.65 1.49 1.24 1.37
0.03 0.02 0.04 0.05 0.06 0.11 0.14 0.32 0.51 0.40 0.38 0.37 0.35 0.38 0.49 0.77 1.10 1.24 1.16 1.18 1.30 1.49 1.72 1.92 2.02 2.00 1.90 1.87 1.92 1.94 1.95 1.72 1.66 1.74 1.79 1.77 1.78 1.74 1.74 1.69 1.58 1.46 1.42 1.33 1.34 1.45 1.42 1.26 1.23
0.04 0.02 0.02 0.03 0.04 0.11 0.14 0.37 0.70 0.59 0.42 0.45 0.48 0.48 0.77 1.02 0.98 1.02 1.11 1.20 1.32 1.45 1.62 1.78 1.77 1.62 1.51 1.56 1.74 1.82 1.79 1.75 1.90 2.13 2.06 1.84 1.68 1.54 1.39 1.27 1.25 1.19 1.20 1.10 1.05 1.15 1.18 1.11 1.05
0.02 0.02 0.02 0.02 0.03 0.07 0.12 0.31 0.69 0.69 0.67 0.56 0.50 0.65 0.94 0.91 0.79 0.83 0.96 1.06 1.10 1.23 1.31 1.47 1.55 1.47 1.44 1.45 1.52 1.63 1.67 1.67 1.68 1.68 1.63 1.52 1.37 1.18 1.02 0.93 0.92 0.90 0.91 0.86 0.83 0.84 0.86 0.89 0.90
0.02 0.02 0.04 0.07 0.08 0.16 0.20 0.28 0.58 0.76 0.64 0.49 0.51 0.62 0.78 0.77 0.73 0.77 0.81 0.85 0.92 1.00 1.01 0.99 1.07 1.15 1.21 1.25 1.28 1.30 1.27 1.23 1.18 1.11 1.08 1.03 0.95 0.79 0.67 0.64 0.66 0.71 0.77 0.75 0.73 0.75 0.75 0.80 0.89
0.02 0.03 0.18 0.38 0.39 0.43 0.28 0.39 0.79 0.71 0.53 0.52 0.60 0.60 0.56 0.55 0.56 0.66 0.67 0.69 0.75 0.80 0.78 0.78 0.83 0.94 0.95 0.91 0.94 0.95 0.93 0.89 0.83 0.83 0.81 0.78 0.72 0.62 0.55 0.53 0.56 0.63 0.69 0.66 0.63 0.63 0.73 0.85 0.92
0.03 0.04 0.15 0.27 0.28 0.36 0.33 0.65 1.09 0.75 0.56 0.59 0.57 0.51 0.45 0.45 0.45 0.54 0.62 0.65 0.65 0.63 0.64 0.66 0.69 0.72 0.70 0.67 0.68 0.69 0.72 0.71 0.67 0.67 0.60 0.57 0.58 0.58 0.57 0.52 0.53 0.54 0.59 0.58 0.61 0.61 0.68 0.79 0.86
0.04 0.03 0.06 0.16 0.15 0.19 0.36 0.65 0.75 0.51 0.45 0.51 0.50 0.46 0.47 0.47 0.44 0.44 0.45 0.49 0.48 0.46 0.46 0.51 0.60 0.64 0.66 0.65 0.63 0.59 0.59 0.56 0.52 0.48 0.46 0.45 0.47 0.50 0.57 0.56 0.57 0.59 0.63 0.65 0.71 0.76 0.84 0.98 1.04
0.06 0.05 0.09 0.11 0.12 0.16 0.26 0.53 0.65 0.50 0.42 0.32 0.27 0.21 0.21 0.22 0.23 0.22 0.22 0.23 0.24 0.27 0.34 0.41 0.45 0.46 0.49 0.51 0.53 0.53 0.49 0.44 0.38 0.35 0.36 0.35 0.37 0.41 0.49 0.56 0.57 0.59 0.60 0.64 0.74 0.93 1.09 1.18 1.23
0.06 0.05 0.06 0.05 0.07 0.12 0.20 0.38 0.31 0.32 0.29 0.26 0.20 0.14 0.13 0.11 0.12 0.16 0.18 0.21 0.23 0.27 0.34 0.42 0.44 0.44 0.46 0.45 0.45 0.45 0.43 0.40 0.35 0.30 0.29 0.30 0.33 0.36 0.40 0.46 0.50 0.53 0.56 0.59 0.68 0.82 1.00 1.11 1.14
0.06 0.05 0.04 0.07 0.06 0.08 0.13 0.24 0.15 0.18 0.18 0.17 0.17 0.14 0.14 0.15 0.15 0.17 0.17 0.23 0.28 0.28 0.29 0.35 0.39 0.44 0.53 0.61 0.69 0.70 0.62 0.53 0.44 0.35 0.30 0.29 0.32 0.35 0.36 0.37 0.39 0.41 0.45 0.51 0.61 0.74 0.85 0.93 0.96